Location: Bli��� Lhota
(48.7570°N, 14.0120°E)
Time: 03:04:47
(UTC+00:00)

Cosmos 1844 - Pass Details

Date: 18 September 2020
Orbit: 824 x 866 km, 70.9° (Epoch: 24 October)

Event Time Altitude Azimuth Distance (km) Brightness Sun altitude
Rises 19:26:51 0° 200° (SSW) 3,413 6.7 -22.3°
Reaches altitude 10° 19:29:18 10° 198° (SSW) 2,475 6.0 -22.7°
Maximum altitude 19:34:58 73° 115° (ESE) 884 3.5 -23.5°
Drops below altitude 10° 19:40:36 10° 31° (NNE) 2,462 6.1 -24.2°
Sets 19:43:02 0° 30° (NNE) 3,395 6.9 -24.6°
